Location: ??????
(36.0418°N, 43.6351°E)
Time: 06:03:02
(UTC+00:00)

Meteor 1-25 Rocket - Pass Details

Date: 07 March 2021
Orbit: 835 x 893 km, 81.2° (Epoch: 20 April)

Event Time Altitude Azimuth Distance (km) Brightness Sun altitude
Rises 02:04:43 0° 352° (N) 3,397 7.3 -17.6°
Reaches altitude 10° 02:07:09 10° 354° (N) 2,456 6.6 -17.1°
Maximum altitude 02:12:43 81° 81° (E) 849 4.3 -16.0°
Drops below altitude 10° 02:18:14 10° 170° (S) 2,441 6.7 -14.8°
Sets 02:20:38 0° 171° (S) 3,375 7.4 -14.4°
